Location: Newark
(32.0500°N, 131.1833°E)
Time: 04:35:21
(UTC+00:00)

X-37B - Visible Passes

Search period start: 25 September 2020 00:00
Search period end: 05 October 2020 00:00
Orbit: 386 x 387 km, 45.0° (Epoch: 18 September)

Date Brightness Start Highest point End Pass type
(mag) Time Alt. Az. Time Alt. Az. Time Alt. Az.
25 Sep 0.7 20:00:02 33° W 20:01:07 53° SW 20:04:13 10° SE visible
26 Sep 3.4 19:04:57 16° ESE 19:04:57 16° ESE 19:05:44 10° ESE visible
26 Sep 2.9 20:37:58 10° WSW 20:38:50 11° SW 20:39:43 10° SSW visible
27 Sep 2.9 19:42:20 14° S 19:42:20 14° S 19:43:03 10° SSE visible
30 Sep 1.0 10:12:33 10° SSW 10:15:32 41° SE 10:15:36 41° SE visible
01 Oct 2.5 10:50:33 10° WSW 10:52:36 30° WNW 10:52:36 30° WNW visible
02 Oct 0.6 09:51:46 10° WSW 09:54:56 84° NW 09:57:08 18° NE visible
03 Oct 2.6 10:30:33 10° W 10:33:08 22° NNW 10:33:49 21° N visible
04 Oct 1.8 09:31:26 10° WSW 09:34:25 39° NNW 09:37:25 10° NE visible
